This is the latest recevied weather packets stored in our database for station/object K8RLH. If no packets are shown the sender has not sent any weather packets the latest 10 day(s).
| Time | Temp. | Humidity | Pressure | Rain* | Wind** | Luminosity | Snow |
|---|---|---|---|---|---|---|---|
| 1778093905 | 26.67° C | 58% | 1016 hPa | 0 mm | - | 222 W/m² | - |
| 1778093602 | 26.67° C | 59% | 1016.1 hPa | 0 mm | - | 175 W/m² | - |
| 1778093299 | 25.56° C | 63% | 1016.3 hPa | 0 mm | - | 238 W/m² | - |
| 1778092997 | 25° C | 64% | 1016.4 hPa | 0 mm | - | 239 W/m² | - |
| 1778092694 | 25° C | 63% | 1016.4 hPa | 0 mm | - | 182 W/m² | - |
| 1778092389 | 25° C | 62% | 1016.3 hPa | 0 mm | - | 127 W/m² | - |
| 1778092086 | 25° C | 61% | 1016 hPa | 0 mm | - | 96 W/m² | - |
| 1778091783 | 25.56° C | 61% | 1015.7 hPa | 0 mm | - | 144 W/m² | - |
| 1778091481 | 25° C | 62% | 1015.8 hPa | 0 mm | - | 143 W/m² | - |
| 1778091179 | 25° C | 65% | 1015.8 hPa | 0 mm | - | 221 W/m² | - |
| 1778090876 | 24.44° C | 64% | 1015.9 hPa | 0 mm | - | 229 W/m² | - |
| 1778090571 | 23.89° C | 65% | 1016 hPa | 0 mm | - | 206 W/m² | - |
| 1778090268 | 23.89° C | 66% | 1016 hPa | 0 mm | - | 194 W/m² | - |
| 1778089965 | 23.89° C | 66% | 1016 hPa | 0 mm | - | 156 W/m² | - |
| 1778089662 | 23.33° C | 68% | 1016.1 hPa | 0 mm | - | 163 W/m² | - |
| 1778089359 | 23.33° C | 66% | 1016.5 hPa | 0 mm | - | 173 W/m² | - |
| 1778089057 | 23.33° C | 66% | 1016.7 hPa | 0 mm | - | 125 W/m² | - |
| 1778088753 | 23.89° C | 66% | 1016.9 hPa | 0 mm | - | 122 W/m² | - |
| 1778088451 | 23.89° C | 65% | 1016.8 hPa | 0 mm | - | 256 W/m² | - |
| 1778088147 | 23.89° C | 66% | 1017 hPa | 0 mm | - | 247 W/m² | - |
| 1778087845 | 23.33° C | 66% | 1017 hPa | 0 mm | - | 231 W/m² | - |
| 1778087542 | 23.33° C | 68% | 1016.9 hPa | 0 mm | - | 232 W/m² | - |
| 1778087239 | 22.78° C | 69% | 1016.9 hPa | 0 mm | - | 271 W/m² | - |
| 1778086936 | 22.78° C | 69% | 1017.2 hPa | 0 mm | - | 214 W/m² | - |
| 1778086634 | 22.78° C | 69% | 1016.6 hPa | 0 mm | - | 243 W/m² | - |
* Rain latest hour (hover to see other rain measurements)
** Current wind speed in m/s (hover to see current wind gust speed)